Ocean City, MD

6:52 PM EDT on August 25, 2016 (GMT -0400)
Ocean City Municipal

Weather History for KOXB - December, 2012

Change the Weather History Date:

Saturday, December 8, 2012

  Actual Average (KSBY) Record (KSBY)
Temperature  
Mean Temperature 52 °F 41 °F  
Max Temperature 57 °F 50 °F 74 °F (1966)
Min Temperature 48 °F 32 °F 10 °F (1954)
Degree Days  
Heating Degree Days 12 24  
Month to date heating degree days 183  
Since 1 July heating degree days 1001  
Cooling Degree Days 0 0  
Month to date cooling degree days 0  
Year to date cooling degree days 1153  
Growing Degree Days 2 (Base 50)    
Moisture  
Dew Point 53 °F    
Average Humidity 99    
Maximum Humidity 100    
Minimum Humidity 90    
Precipitation  
Precipitation 0.22 in 0.13 in 1.30 in (1974)
Month to date precipitation 1.02  
Year to date precipitation 42.99  
Snow  
Snow 0.00 in 0.10 in 10.00 in (1989)
Month to date snowfall 0.4  
Since 1 July snowfall 0.6  
Snow Depth -    
Sea Level Pressure  
Sea Level Pressure 29.96 in    
Wind  
Wind Speed 6 mph (WSW)    
Max Wind Speed 12 mph    
Max Gust Speed 18 mph    
Visibility 3 miles    
Events Fog , Rain    
T = Trace of Precipitation, MM = Missing Value Source: NWS Daily Summary

Daily Weather History Graph

Daily Weather History Graph

Search for Another Location

Airport or City:

Trip Planner

Search our weather history database for the weather conditions in past years. The results will help you decide how hot, cold, wet, or windy it might be!

Date:

Astronomy

Dec. 08, 2012 Rise Set
Actual Time 7:05 AM EST 4:39 PM EST
Civil Twilight 6:35 AM EST 5:09 PM EST
Nautical Twilight 6:02 AM EST 5:42 PM EST
Astronomical Twilight 5:30 AM EST 6:14 PM EST
Moon 1:30 AM EST (12/8) 1:05 PM EST (12/8)
Length of Visible Light 10h 33m
Length of Day
9h 34m
Waning Crescent, 28% of the Moon is Illuminated
Dec 8
Waning Crescent
Dec 13
New
Dec 20
First Quarter
Dec 28
Full
Jan 4
Last Quarter

Hourly Weather History & Observations

Time (EST) Temp. Dew Point Humidity Pressure Visibility Wind Dir Wind Speed Gust Speed Precip Events Conditions
12:34 AM 53.6 °F 53.6 °F 100% 29.97 in 10.0 mi SSW 9.2 mph - 0.00 in   Overcast
12:53 AM 55.0 °F 54.0 °F 96% 29.96 in 10.0 mi SSW 8.1 mph - 0.00 in   Overcast
1:22 AM 55.4 °F 55.4 °F 100% 29.95 in 10.0 mi SSW 8.1 mph 17.3 mph N/A   Overcast
1:30 AM 57.2 °F 55.4 °F 94% 29.95 in 10.0 mi SSW 11.5 mph 17.3 mph N/A   Overcast
1:53 AM 57.0 °F 55.9 °F 96% 29.95 in 8.0 mi SW 11.5 mph 17.3 mph N/A   Overcast
2:04 AM 55.4 °F 55.4 °F 100% 29.95 in 9.0 mi SSW 10.4 mph 18.4 mph 0.00 in   Overcast
2:53 AM 55.9 °F 55.9 °F 100% 29.94 in 4.0 mi WSW 8.1 mph - 0.01 in Rain Light Rain
2:58 AM 55.4 °F 55.4 °F 100% 29.94 in 1.8 mi WSW 8.1 mph - 0.05 in Rain Heavy Rain
3:23 AM 57.2 °F 57.2 °F 100% 29.93 in 1.8 mi SW 9.2 mph - 0.19 in Rain Light Rain
3:25 AM 57.2 °F 57.2 °F 100% 29.93 in 2.0 mi SW 9.2 mph - 0.19 in Rain Light Rain
3:36 AM 57.2 °F 57.2 °F 100% 29.93 in 4.0 mi SW 9.2 mph - 0.20 in Rain Light Rain
3:50 AM 57.2 °F 57.2 °F 100% 29.93 in 2.5 mi WSW 6.9 mph - 0.21 in Rain Light Rain
3:53 AM 57.0 °F 57.0 °F 100% 29.93 in 2.5 mi West 6.9 mph - 0.21 in Rain Light Rain
4:00 AM 55.4 °F 55.4 °F 100% 29.92 in 2.5 mi NW 5.8 mph - 0.00 in Rain Light Rain
4:08 AM 55.4 °F 55.4 °F 100% 29.92 in 3.0 mi NW 5.8 mph - 0.00 in   Overcast
4:15 AM 55.4 °F 55.4 °F 100% 29.93 in 2.0 mi NW 5.8 mph - 0.00 in   Overcast
4:39 AM 53.6 °F 53.6 °F 100% 29.92 in 1.8 mi WNW 3.5 mph - 0.00 in   Overcast
4:49 AM 53.6 °F 53.6 °F 100% 29.92 in 2.5 mi West 3.5 mph - 0.00 in   Overcast
4:53 AM 54.0 °F 54.0 °F 100% 29.92 in 3.0 mi Calm Calm - 0.00 in   Overcast
5:04 AM 53.6 °F 53.6 °F 100% 29.92 in 3.0 mi Calm Calm - N/A   Overcast
5:35 AM 53.6 °F 53.6 °F 100% 29.93 in 5.0 mi Calm Calm - N/A   Overcast
5:53 AM 54.0 °F 54.0 °F 100% 29.93 in 5.0 mi Calm Calm - N/A   Overcast
6:51 AM 53.6 °F 53.6 °F 100% 29.94 in 4.0 mi West 3.5 mph - N/A   Overcast
6:53 AM 53.1 °F 53.1 °F 100% 29.94 in 4.0 mi West 3.5 mph - N/A   Overcast
7:17 AM 53.6 °F 53.6 °F 100% 29.94 in 2.5 mi Calm Calm - N/A   Overcast
7:39 AM 53.6 °F 53.6 °F 100% 29.94 in 1.8 mi Calm Calm - N/A   Overcast
7:53 AM 54.0 °F 54.0 °F 100% 29.94 in 1.5 mi Calm Calm - N/A   Overcast
8:21 AM 53.6 °F 53.6 °F 100% 29.95 in 3.0 mi WSW 3.5 mph - N/A   Overcast
8:31 AM 53.6 °F 53.6 °F 100% 29.95 in 3.0 mi Calm Calm - N/A   Overcast
8:53 AM 54.0 °F 54.0 °F 100% 29.95 in 3.0 mi WSW 4.6 mph - N/A   Overcast
9:03 AM 53.6 °F 53.6 °F 100% 29.95 in 2.0 mi SSW 4.6 mph - N/A   Overcast
9:10 AM 53.6 °F 53.6 °F 100% 29.96 in 1.8 mi SSW 3.5 mph - N/A   Overcast
9:31 AM 53.6 °F 53.6 °F 100% 29.96 in 0.8 mi South 4.6 mph - N/A   Overcast
9:53 AM 53.1 °F 53.1 °F 100% 29.96 in 0.5 mi SSW 4.6 mph - N/A Fog Fog
10:45 AM 53.6 °F 53.6 °F 100% 29.96 in 1.0 mi SW 6.9 mph - N/A   Overcast
10:53 AM 54.0 °F 54.0 °F 100% 29.96 in 1.2 mi SW 4.6 mph - N/A   Overcast
11:09 AM 55.4 °F 55.4 °F 100% 29.95 in 3.0 mi WSW 4.6 mph - N/A   Overcast
11:26 AM 55.4 °F 55.4 °F 100% 29.95 in 4.0 mi SW 5.8 mph - N/A   Overcast
11:53 AM 55.0 °F 55.0 °F 100% 29.94 in 6.0 mi WSW 6.9 mph - N/A   Overcast
12:53 PM 55.9 °F 54.0 °F 93% 29.93 in 5.0 mi West 6.9 mph - N/A   Overcast
1:53 PM 55.9 °F 53.1 °F 90% 29.93 in 8.0 mi West 4.6 mph - N/A   Overcast
2:53 PM 55.0 °F 53.1 °F 93% 29.92 in 6.0 mi SW 4.6 mph - N/A   Overcast
3:53 PM 54.0 °F 53.1 °F 97% 29.94 in 6.0 mi West 4.6 mph - N/A   Overcast
4:53 PM 53.1 °F 52.0 °F 96% 29.95 in 6.0 mi Calm Calm - N/A   Overcast
5:43 PM 51.8 °F 51.8 °F 100% 29.96 in 5.0 mi WNW 5.8 mph - N/A   Overcast
5:53 PM 51.1 °F 51.1 °F 100% 29.97 in 4.0 mi WNW 3.5 mph - N/A   Overcast
6:53 PM 51.1 °F 51.1 °F 100% 29.98 in 3.0 mi West 3.5 mph - N/A   Overcast
6:59 PM 50.0 °F 50.0 °F 100% 29.98 in 1.8 mi West 4.6 mph - N/A   Overcast
7:27 PM 50.0 °F 50.0 °F 100% 29.99 in 0.8 mi WNW 3.5 mph - N/A   Overcast
7:53 PM 50.0 °F 50.0 °F 100% 30.00 in 0.5 mi SW 3.5 mph - N/A Fog Fog
8:10 PM 50.0 °F 50.0 °F 100% 30.00 in 0.2 mi Calm Calm - N/A Fog Fog
8:53 PM 50.0 °F 50.0 °F 100% 30.00 in 0.5 mi WSW 5.8 mph - N/A Fog Fog
9:02 PM 50.0 °F 50.0 °F 100% 30.01 in 0.2 mi SW 4.6 mph - N/A Fog Fog
9:33 PM 50.0 °F 50.0 °F 100% 30.02 in 0.5 mi SW 5.8 mph - N/A Fog Fog
9:53 PM 50.0 °F 50.0 °F 100% 30.01 in 0.2 mi SW 4.6 mph - N/A Fog Fog
10:01 PM 50.0 °F 50.0 °F 100% 30.01 in 0.5 mi SW 4.6 mph - N/A Fog Fog
10:14 PM 50.0 °F 50.0 °F 100% 30.01 in 0.2 mi SW 3.5 mph - N/A Fog Fog
10:34 PM 50.0 °F 50.0 °F 100% 30.02 in 0.5 mi WSW 3.5 mph - N/A Fog Fog
10:53 PM 48.9 °F 48.9 °F 100% 30.03 in 0.5 mi Calm Calm - N/A Fog Fog
11:38 PM 48.2 °F 48.2 °F 100% 30.02 in 0.2 mi SW 4.6 mph - N/A Fog Fog
11:53 PM 48.0 °F 48.0 °F 100% 30.02 in 0.2 mi Calm Calm - N/A Fog Fog